Tracking 19250 objects as of 23-Sep-2018
HD Live streaming from Space Station
objects crossing your sky now

FENGYUN 1C DEB

Track FENGYUN 1C DEB now!
10-day predictions


NORAD ID: 33709
Int'l Code: 1999-025DGW
Perigee: 527.4 km
Apogee: 587.1 km
Inclination: 99.0 °
Period: 95.7 minutes
Semi major axis: 6928 km
RCS: 0.0093 m2 (small)
Launch date: May 10, 1999
Source: People's Republic of China (PRC)
Launch site: Taiyaun Space Center, China (TSC)

Note: This is SATELLITE DEBRIS
aabbcc
Your satellite tracking list
Your tracking list is empty




NASA's NSSDC Master Catalog

Two Line Element Set (TLE):
1 33709U 99025DGW 18263.43496592 +.00004995 +00000-0 +34643-3 0  9999
2 33709 099.0371 337.0981 0043112 017.4744 342.7950 15.05450924558364
Source of the keplerian elements: AFSPC